#timestamp,LO_Frequency,Hit,StdDev 
1566349215.4,286046997.0,N
1566349235.2,286046997.1,N
1566349255.1,286046994.9,N
1566349256.0,286046994.9,N
1566349275.8,286046997.9,N
1566349295.6,286046995.5,N
1566349315.5,286046996.6,N
1566349335.3,286046994.9,N
1566349355.2,286046996.8,N
1566349375.9,286046996.5,N
1566349395.7,286046999.4,N
1566349415.6,286046996.8,N
1566349435.4,286046996.6,N
1566349455.3,286046998.6,N
1566349475.1,286046998.5,N
1566349476.0,286046998.5,N
1566349495.8,286046999.0,N
1566349515.7,286046998.3,N
1566349535.5,286047000.7,N
1566349555.3,286047000.6,N
1566349575.2,286046998.1,N
1566349595.0,286046998.7,N
1566349595.9,286046998.7,N
1566349615.8,286046998.3,N
1566349635.6,286047002.4,N
1566349655.4,286047002.4,N
1566349675.3,286047002.5,N
1566349695.1,286047000.7,N
1566349715.9,286046998.9,N
1566349735.7,286046998.2,N
1566349755.5,286046999.0,N
1566349775.4,286046999.5,N
1566349795.2,286046999.6,N
1566349815.0,286047000.9,N
1566349815.9,286047000.9,N
1566349835.8,286047002.0,N
1566349855.6,286047001.8,N
1566349875.5,286047001.5,N
1566349895.3,286047000.5,N
1566349915.1,286047001.7,N
1566349935.9,286047001.8,N
1566349955.7,286046999.8,N
1566349975.5,286047002.2,N
1566349995.4,286046998.6,N
1566350015.2,286047000.4,N
1566350035.1,286046998.3,N
1566350036.0,286046998.3,N
1566350055.8,286046998.5,N
1566350075.6,286046998.8,N
1566350095.5,286046998.8,N
1566350115.3,286047000.6,N
1566350135.1,286047001.0,N
1566350155.9,286047002.2,N
1566350175.7,286047002.2,N
1566350195.6,286047001.4,N
1566350215.4,286047001.7,N
1566350235.2,286047000.4,N
1566350255.1,286047002.3,N
1566350256.0,286047002.3,N
1566350275.8,286047001.6,N
1566350295.6,286047000.0,N
1566350315.5,286047001.6,N
1566350335.3,286047001.0,N
1566350355.2,286046998.2,N
1566350375.9,286046999.5,N
1566350395.7,286046998.2,N
1566350415.6,286046999.7,N
1566350435.4,286046999.7,N
1566350455.2,286047002.3,N
1566350475.1,286047004.2,N
1566350476.0,286047004.2,N
1566350495.8,286047004.3,N
1566350515.7,286047003.5,N
1566350535.5,286047000.9,N
1566350555.3,286047002.6,N
1566350575.2,286047000.2,N
1566350595.0,286047000.2,N
1566350595.9,286047000.2,N
1566350615.7,286047000.4,N
1566350635.6,286046999.8,N
1566350655.4,286046998.2,N
1566350675.3,286047000.6,N
1566350695.1,286047000.4,N
1566350696.0,286047000.4,N
1566350715.8,286046998.9,N
1566350735.7,286047001.1,N
1566350755.5,286046998.8,N
1566350775.3,286046998.5,N
1566350795.2,286047000.9,N
1566350815.0,286046996.5,N
1566350815.9,286046996.5,N
1566350835.8,286046998.8,N
1566350855.6,286046998.2,N
1566350875.4,286047001.0,N
1566350895.3,286047000.7,N
1566350915.1,286047000.4,N
1566350935.9,286047000.4,N
1566350955.7,286046998.5,N
1566350975.5,286046999.3,N
1566350995.4,286047000.4,N
1566351015.2,286047000.8,N
1566351035.0,286047002.5,N
1566351036.0,286047002.5,N
1566351055.8,286047004.3,N
1566351075.6,286047001.8,N
1566351095.5,286047002.1,N
1566351115.3,286047001.6,N
1566351135.1,286047001.8,N
1566351155.9,286047003.8,N
1566351175.7,286047002.3,N
1566351195.6,286047002.8,N
1566351215.4,286046999.8,N
1566351235.2,286047000.3,N
1566351255.1,286046998.1,N
1566351256.0,286046998.1,N
1566351275.8,286046999.4,N
1566351295.6,286047000.9,N
1566351315.5,286047002.7,N
1566351335.3,286047000.3,N
1566351355.2,286047002.2,N
1566351375.9,286047003.9,N
1566351395.7,286047001.9,N
1566351415.6,286047004.1,N
1566351435.4,286047005.7,Y
1566351455.3,286047003.8,P
1566351475.1,286047001.4,N
1566351476.0,286047001.4,N
1566351495.8,286047004.3,Y
1566351515.7,286046999.8,P
1566351535.5,286047001.1,N
1566351555.3,286047000.5,N
1566351575.2,286047003.1,Y
1566351595.0,286047005.9,P
1566351595.9,286047005.9,N
1566351615.8,286047003.4,N
1566351635.6,286047003.4,N
1566351655.4,286047001.3,N
1566351675.3,286047002.8,N
1566351695.1,286047000.4,N
1566351715.8,286046999.7,N
1566351735.7,286047002.5,N
1566351755.5,286046999.9,N
1566351775.4,286047000.4,N
1566351795.2,286047002.8,N
1566351815.0,286047002.3,N
1566351815.9,286047002.3,N
1566351835.8,286047000.1,N
1566351855.6,286046999.7,N
1566351875.4,286047000.0,N
1566351895.3,286047001.0,N
1566351915.1,286047000.8,N
1566351935.9,286046998.9,N
1566351955.7,286047000.1,N
1566351975.5,286046999.9,N
1566351995.4,286047002.4,N
1566352015.2,286047000.1,N
1566352035.0,286047004.4,N
1566352035.9,286047004.4,N
1566352055.8,286047003.8,N
1566352075.6,286047003.2,N
1566352095.5,286047003.6,N
1566352115.3,286047003.5,N
1566352135.1,286047003.1,N
1566352155.9,286047003.5,N
1566352175.7,286047003.8,N
1566352195.6,286047003.9,N
1566352215.4,286047004.4,N
1566352235.2,286047003.8,N
1566352255.1,286047002.1,N
1566352256.0,286047002.1,N
1566352275.8,286047002.2,N
1566352295.6,286047004.1,N
1566352315.5,286047005.3,Y
1566352335.3,286047000.8,P
1566352355.2,286046998.1,N
1566352375.9,286047001.0,N
1566352395.7,286046996.6,N
1566352415.6,286046999.4,N
1566352435.4,286046998.5,N
1566352455.2,286046999.5,N
1566352475.1,286046996.5,N
1566352476.0,286046996.5,N
1566352495.8,286046998.8,N
1566352515.7,286047000.9,N
1566352535.5,286047000.2,N
1566352555.3,286047000.5,N
1566352575.2,286046999.1,N
1566352595.9,286046997.0,N
1566352615.7,286046999.3,N
1566352635.6,286046999.0,N
1566352655.4,286047000.8,N
1566352675.2,286046996.5,N
1566352695.1,286046997.1,N
1566352696.0,286046997.1,N
1566352715.8,286047000.2,N
1566352735.7,286047000.9,N
1566352755.5,286047000.6,N
1566352775.3,286047000.3,N
1566352795.2,286046999.8,N
